www.pogodaiklimat.ru

Погода и климат >> Архив погоды >> Иран >> Шехре-Корд


ПОГОДА в Шехре-Корде

  • Прогноз погоды в Шехре-Корде
  • Монитор погоды в Шехре-Корде

АРХИВ ПОГОДЫ в Шехре-Корде

Время (UTC), дата Ветер
(напр.,м/с)
 
Видим.   Явления Облачность Т
(С)
Тd
(С)
f
(%)
Тe
(С)
Тes
(С)
Комфортность P
(гПа)
Po
(гПа)
Тmin
(С)
Tmax
(С)
R
(мм)
R24
(мм)
S
(см)
00 14.09 С 1 10 км ясно +8.2 -5.0 39 +8 +8 1009.0 798.8
03 14.09 С 1 10 км ясно +4.8 -5.1 49 +4 +4 1014.2 800.0 +4.4
06 14.09 С 1 10 км ясно +20.9 -4.6 18 +22 +33 комфорт 1011.6 800.9
09 14.09 З 3 10 км ясно +26.2 -6.1 11 +23 +37 комфорт 1010.7 799.2 666
12 14.09 СВ 3 10 км ясно +28.6 -9.6 8 +25 +30 комфорт 1008.4 798.0
15 14.09 В 4 10 км ясно +21.9 -5.5 15 +21 +21 комфорт 1012.6 798.1 +30.2
18 14.09 СЗ 3 10 км ясно +14.7 -3.3 29 +14 +14 1010.9 799.8
21 14.09 СЗ 2 10 км ясно +12.5 -4.2 31 +12 +12 1010.1 800.0
00 15.09 С 3 10 км ясно +10.2 -4.6 35 +9 +9 1010.3 800.2
03 15.09 СЗ 2 10 км ясно +6.9 -3.8 46 +5 +6 1015.8 801.3 +3.6
06 15.09 С 1 10 км 1/0
[Ci fib]
+21.5 -2.6 20 +21 +32 комфорт 1013.9 801.9
09 15.09 ЮВ 3 10 км 3/0
[Ci fib]
+28.2 -5.6 11 +25 +38 комфорт 1009.6 800.2
12 15.09 СВ 4 10 км 3/0
[Ci fib]
+30.6 -12.0 6 +26 +31 жарко 1008.1 798.9
15 15.09 В 3 10 км ясно +23.4 -3.0 17 +22 +22 комфорт 1012.9 799.6 +31.4
18 15.09 С 3 10 км ясно +15.8 -3.2 27 +16 +16 1012.3 801.3
21 15.09 З 3 10 км ясно +15.7 -3.8 26 +15 +15 1010.7 802.1
00 16.09 С 2 10 км ясно +8.5 -2.1 47 +7 +7 1012.9 802.4
03 16.09 З 1 10 км ясно +6.9 -1.7 54 +6 +7 1017.9 803.6 +6.8
06 16.09 В 1 10 км ясно +23.2 -1.9 19 +22 +33 комфорт 1015.3 804.2
09 16.09 СВ 2 10 км ясно +28.5 -3.3 12 +25 +41 комфорт 1011.2 802.6 666
12 16.09 ЮВ 2 10 км ясно +30.4 -7.2 8 +26 +33 жарко 1011.2 800.8
15 16.09 В 3 10 км 3/0
[Ci fib]
+23.4 -3.9 16 +22 +22 комфорт 1014.3 800.6 +30.9 666
18 16.09 СЗ 3 10 км ясно +19.6 -3.3 21 +20 +20 1010.9 802.0
21 16.09 З 3 10 км ясно +17.1 -3.4 24 +17 +17 1010.2 802.3
00 17.09 С 2 10 км ясно +10.0 -2.0 43 +9 +9 1011.8 801.9
03 17.09 СВ 1 10 км ясно +7.6 -2.4 49 +7 +8 1016.7 802.9 +6.8 666
06 17.09 Ю 2 10 км 3/0
[Ci fib]
+23.1 -2.6 18 +22 +31 комфорт 1013.4 803.7
09 17.09 СВ 2 10 км 3/0
[Ci fib]
+29.3 -5.3 10 +26 +41 жарко 1009.2 801.7
12 17.09 Ю 3 10 км 3/0
[Ci fib]
+31.1 -7.2 8 +27 +32 жарко 1009.2 800.0
15 17.09 В 2 10 км 1/0
[Ci fib]
+25.7 -4.9 13 +23 +23 комфорт 1011.3 799.4 +31.8 666
18 17.09 СЗ 3 10 км ясно +18.4 -2.8 24 +19 +19 1009.9 800.7
21 17.09 СЗ 3 10 км ясно +14.2 -4.5 27 +14 +14 1009.5 800.9
00 18.09 ЮВ 1 10 км ясно +8.6 -2.6 45 +9 +9 1010.9 801.0
03 18.09 штиль 0 10 км 3/0
[Ci fib]
+6.6 -3.4 49 +6 +7 1015.2 802.2 +6.5 666
06 18.09 ЮВ 1 10 км 1/0
[Ci fib]
+23.9 -4.0 15 +22 +33 комфорт 1012.4 803.0
09 18.09 В 3 10 км 1/0
[Ci fib]
+29.9 -5.8 9 +26 +39 жарко 1010.1 801.5 666
12 18.09 ЮВ 4 10 км ясно +31.9 -6.6 8 +28 +32 жарко 1009.4 799.9
15 18.09 Ю 1 10 км ясно +25.9 -4.1 14 +24 +24 комфорт 1012.5 800.0 +32.4
18 18.09 С 2 10 км ясно +19.6 -1.5 24 +20 +20 1009.9 801.4
21 18.09 СЗ 2 10 км ясно +12.5 -3.7 32 +12 +12 1010.2 801.2
00 19.09 СЗ 1 10 км ясно +9.5 -1.9 45 +10 +10 1010.6 801.2
03 19.09 С 1 10 км ясно +9.6 -3.1 41 +10 +10 1014.1 802.2 +8.0
06 19.09 ЮВ 1 10 км ясно +24.6 -3.2 16 +23 +34 комфорт 1011.1 802.5
09 19.09 ЮЗ 5 10 км ясно +31.5 -5.6 9 +28 +36 жарко 1009.0 800.7
12 19.09 Ю 4 10 км ясно +32.2 -4.6 9 +28 +33 жарко 1008.1 799.3
15 19.09 ЮЗ 3 10 км ясно +25.1 -5.9 12 +23 +23 комфорт 1011.5 799.8 +32.8
18 19.09 СЗ 3 10 км ясно +19.0 -4.2 20 +19 +19 1009.0 800.7
21 19.09 З 2 10 км ясно +11.8 -0.4 43 +11 +11 1008.7 800.4
00 20.09 В 1 10 км ясно +7.2 -4.1 44 +7 +7 1010.3 800.3
03 20.09 С 1 10 км ясно +6.4 -3.3 50 +6 +6 1014.0 800.9 +5.3
06 20.09 СВ 1 10 км ясно +23.5 -3.5 16 +22 +33 комфорт 1010.5 801.4
09 20.09 В 1 10 км ясно +31.7 -6.0 8 +28 +46 жарко 1007.3 799.2
12 20.09 З 3 10 км ясно +33.0 -6.8 7 +29 +34 жарко 1006.3 797.6
15 20.09 СЗ 2 10 км ясно +24.9 -3.2 15 +23 +23 комфорт 1010.1 798.0 +33.8
18 20.09 СЗ 3 10 км ясно +18.6 -3.1 23 +19 +19 1007.8 799.3

 

Местоположение метеостанции Шехре-Корд (Иран): широта 32.28 долгота 50.85 высота над уровнем моря 2019 м.

В архиве по умолчанию представлена погода в Шехре-Корде за последнюю неделю. Архивные данные за месяц целиком и за предыдущие месяцы, начиная с января 2011 года, Вы можете получить, выбрав интересующий диапазон дат из раскрывающегося списка и нажав кнопку "Ввод!".


*Определитесь, кто Вы:
робот инопланетянин человек

Внимание! Время в таблицах - всемирное. Для получения местного времени необходимо прибавить поправку, которая равна 3.5 ч.

Смотрите также архив погоды в соседних городах и на ближайших метеорологических станциях:

Погода в Исфахане (Иран) (80 км)
Погода в Месджеде-Солеймане (Иран) (153 км)
Погода в Элигудерзе (Иран) (166 км)
Погода в Ясудже (Иран) (192 км)
Погода в Кашане (Иран) (197 км)
Погода в Омидийе (Иран) (202 км)
Погода в Гечсаране (Иран) (206 км)
Погода в Абаде (Иран) (211 км)
Погода в Араке (Иран) (226 км)
Погода в Сафиабаде (Иран) (229 км)

Пояснения к столбцам:

Ветер - указаны скорость ветра в м/с - средняя за 10 мин, порывы в срок и между сроками (в фигурных скобках) и направление, откуда дует ветер: С - северный, СВ - северо-восточный, В - восточный, ЮВ - юго-восточный, Ю - южный, ЮЗ - юго-западный, З - западный, СЗ - северо-западный.
Видимость - горизонтальная дальность видимости в метрах или километрах. При видимости от 1 до 10 км при отсутствии осадков обычно наблюдается дымка, при ухудшении видимости до 1 км и менее - туман. В сухую погоду видимость может ухудшаться дымом, пылью или мглою.
Явления - указаны атмосферные явления, наблюдавшиеся в срок или в последний час перед сроком; фигурными скобками обозначены явления, наблюдавшиеся между сроками (за 1-3 часа до срока); квадратными скобками обозначены град или гололедные отложения с указанием их диаметра в мм.
Облачность - указаны через наклонную черту общая и нижняя облачность в баллах и высота нижней границы облаков в метрах; квадратными скобками обозначены формы облаков: Ci - перистые, Cs - перисто-слоистые, Cc - перисто-кучевые, Ac - высококучевые, As - высокослоистые, Sc - слоисто-кучевые, Ns - слоисто-дождевые, Cu - кучевые, Cb - кучево-дождевые. Подробнее классификацию облаков см. в Атласе облаков (PDF).
T - Температура воздуха - температура, измеренная на высоте 2 м над землей.
Td - Температура точки росы - температура, при понижении до которой содержащийся в воздухе водяной пар достигнет насыщения.
f - Относительная влажность воздуха - влажноcть воздуха, измеренная на высоте 2 м над землей.
Te - Эффективная температура - температура, которую ощущает одетый по сезону человек в тени. Характеристика душности погоды. При расчете учитывается влияние влажности воздуха и скорости ветра на теплоощущения человека.
Tes - Эффективная температура на солнце - температура, которую ощущает человек, с поправкой на солнечный нагрев. Характеристика знойности погоды. Зависит от высоты солнца над горизонтом, облачности и скорости ветра. Ночью, в пасмурную погоду, а также при ветре 12 м/с и более поправка равна нулю.
P - Атмосферное давление - приведенное к уровню моря атмосферное давление.
Po - Атмосферное давление - измеренное на уровне метеостанции атмосферное давление.
Tmin - Минимальная температура - минимум температуры воздуха на высоте 2 м над землей.
Tmax - Максимальная температура - максимум температуры воздуха на высоте 2 м над землей.
R - Количество осадков - Количество выпавших осадков за период времени, мм. При наведении курсора мыши на число - период времени, за который выпало указанное количество осадков.
R24 - Количество осадков - Количество выпавших осадков за 24 часа, мм.
S - Снежный покров - Высота снежного покрова, см. При наведении курсора мыши на число - состояние снежного покрова и степень покрытия местности в баллах.